Location: Devargunta
(16.7631°N, 80.9077°E)
Time: 18:07:05
(UTC+00:00)

SL-4 R/B - Pass Details

Date: 19 January 2021
Orbit: 427 x 664 km, 51.6° (Epoch: 04 March)

Event Time Altitude Azimuth Distance (km) Brightness Sun altitude
Exits shadow 23:11:13 28° 101° (E) 891 3.7 -27.7°
Drops below altitude 10° 23:13:45 10° 62° (ENE) 1,628 5.0 -27.1°
Sets 23:16:08 0° 51° (NE) 2,548 5.9 -26.6°
